Regional Weather Roundup
Issued by NWS

Home | Current Version | Previous Version | Text Only | Print | Product List | Glossary Off
Versions: 1 2 3 4 5 6 7 8 9 10 11 12 13 14 15 16 17 18 19 20 21 22 23 24 25 26 27 28 29 30 31 32 33 34 35 36 37 38 39 40 41 42 43 44 45 46 47 48 49 50

000
ASUS44 KMEG 130710
RWRTN
TENNESSEE HOURLY STATE WEATHER ROUNDUP
NATIONAL WEATHER SERVICE MEMPHIS TN
100 AM CST WED DEC 13 2017

TNZ002-004-019-021-049-052-054-088>092-130800-
WEST TENNESSEE

CITY           SKY/WX    TMP DP  RH WIND       PRES   REMARKS
MEMPHIS INTL   CLEAR     33  22  63 CALM      30.12F
NWS MEMPHIS      N/A     27 N/A N/A MISG        N/A
JACKSON        CLOUDY    24  19  81 S5        30.12F WCI  18
DYERSBURG      PTCLDY    26  22  84 CALM      30.12F
SOMERVILLE     CLEAR     27  21  80 S3        30.10F
COVINGTON      CLEAR     23  21  93 CALM      30.12
BOLIVAR        CLEAR     23  19  86 CALM      30.11F
PARIS          CLEAR     21  14  73 CALM      30.08F
HUNTINGDON     CLEAR     25  18  74 CALM      30.09F
LEXINGTON      CLEAR     23  18  80 CALM      30.11F
SELMER         CLEAR     23  19  86 SW5       30.10F WCI  17
SAVANNAH       CLEAR     25  21  86 CALM      30.12F
$$

TNZ008-025-027-028-033-062-065-066-130800-
NORTH MIDDLE TENNESSEE

CITY           SKY/WX    TMP DP  RH WIND       PRES   REMARKS
NASHVILLE      CLOUDY    26  13  57 S3        30.10F
PORTLAND       CLEAR     21  14  73 CALM      30.07F
CLARKSVILLE    PTCLDY    22  12  65 CALM      30.08F
SMYRNA         CLOUDY    23  15  71 CALM      30.11F
COOKEVILLE     CLEAR     16  14  93 CALM      30.06S
GALLATIN       CLEAR     21  14  73 CALM      30.11F
CROSSVILLE     CLOUDY    21   7  54 NW6       30.01S WCI  13
$$

TNZ061-075-076-078-094-096-097-130800-
SOUTH MIDDLE TENNESSEE

CITY           SKY/WX    TMP DP  RH WIND       PRES   REMARKS
FAYETTEVILLE   CLEAR     28  12  50 CALM      30.07F
TULLAHOMA      CLEAR     23  12  63 NW5       30.07F WCI  17
WINCHESTER     CLEAR     19  16  86 CALM      30.08F
MCMINNVILLE    CLEAR     21  14  73 CALM      30.07F
$$

TNZ017-018-042-046-047-130800-
NORTHEAST TENNESSEE

CITY           SKY/WX    TMP DP  RH WIND       PRES   REMARKS
TRI CITIES     CLEAR     23   6  48 W12       29.95F WCI  12
$$

TNZ012-013-036-069-073-074-130800-
CENTRAL EAST TENNESSEE

CITY           SKY/WX    TMP DP  RH WIND       PRES   REMARKS
KNOXVILLE      CLEAR     27  11  51 CALM      30.05R
OAK RIDGE      CLEAR     27   7  42 W3        30.06S
DOWNTOWN KNOXV   N/A     28  12  50 CALM      30.06S
GATLINBURG     CLEAR     27  10  50 W5        30.04R WCI  21
MORRISTOWN     CLEAR     25   7  46 NW10      30.01R WCI  15
JACKSBORO      CLEAR     25   7  46 CALM      30.07S
$$

TNZ083-085-099-130800-
SOUTHEAST TENNESSEE

CITY           SKY/WX    TMP DP  RH WIND       PRES   REMARKS
CHATTANOOGA    CLEAR     29   8  41 NW6       30.08S WCI  23
DAYTON         SUNNY     27  14  59 CALM      30.07S
$$

SKY/WX REPORTED AS FAIR MEANS FEW OR NO CLOUDS BELOW
12 THOUSAND FEET.





USA.gov is the U.S. government's official web portal to all federal, state and local government web resources and services.